OPS 4682 DEB, 38368

Orbit data source: Space-Track

OPS 4682 DEB, 38368 is space debris in LEO originally from a launch on Sat, 03 Apr 1965 UTC launched from the Air Force Western Test Range (AFWTR). Debris objects in space refer to the collection of defunct objects orbiting the Earth. Examples of debris include non-operational satellites, rocket bodies, and fragments generated from explosions, collisions, or faulty payload assembly.

Loading next visibility...
Identifier
38368, 1965-027BV
Orbit
LEO
Country
Flag of USUS
Related business
Manufacturer
Unknown
Mission
Spacecraft
Bus & Motor
Unknown
Mass
Unknown
Launch date (UTC)
1965-04-03 (61 years ago)
Launch vehicle
Unknown
Launch site
Air Force Western Test Range (AFWTR)
Object type
Payload
Rocket body
Debris
Shape & HBR
Unknown shape, 0.1 m
Radar Cross Section
Medium (>0.1 m² and <1 m²)

Expand to show TLE details & history
Last TLE update: 2 days ago

TLE from 2 days ago
0 OPS 4682 DEB
1 38368U 65027BV  26173.99276753  .00000310  00000-0  10614-2 0  9993
2 38368  90.2476  13.1101 0023835 123.4274 236.9129 12.96084640663444
Epoch: 2026-06-22T23:49Z
TLE epoch observation values (Epoch: 2026-06-22T23:49:35.114Z)
Latitude
-0.00011°
Longitude
104.54307°
Altitude
1,290.338 km
Speed
7.206 km/s
True Right ascension
00h 52m 26s
True Declination
0° 00' 00"
Sunlit
Object was in daylight at epoch
Visualization orbit readout
Latitude
Unknown
Longitude
Unknown
Altitude
Unknown
Speed
Unknown
Apparent Right ascension
Unknown
Apparent Declination
Unknown
Sunlit
N/A
Visualization observer readout
Local Sidereal Time
03:13:29
Azimuth
Unknown
Elevation
Unknown
Doppler factor
Unknown
Orbital elements
Apogee altitude
1,292.839 km
Perigee altitude
1,256.358 km
Semi-major axis
7,652.736 km
Eccentricity
0.00238
Inclination
90.2476°
RAAN
13.1101°
Arg. of periapsis
123.4274°
True anomaly
236.68443°
Mean anomaly
236.9129°
Eccentric anomaly
236.79863°
Mean motion
3.24204 °/min
Orbital period
111.04 mins
BSTAR
0.0010614
Loading maneuver chart data...
Computing Atmospheric mass density...
Loading historical data...
Loading historical data...
Loading historical data...
Loading historical data...
Loading historical data...
Loading historical data...
Loading historical data...

Documentation

Showing up to 5 results
|